Weather History for Hall Beach, NU

Change the Weather History Date:

Saturday, January 12, 2013

  Actual Average Record
Temperature  
Mean Temperature -19 °F -  
Max Temperature -7 °F -17 °F 3 °F (2011)
Min Temperature -31 °F -30 °F -45 °F (2004)
Degree Days  
Heating Degree Days 84    
Moisture  
Dew Point -20 °F    
Average Humidity 79    
Maximum Humidity 84    
Minimum Humidity 69    
Precipitation  
Precipitation 0.00 in - - ()
Sea Level Pressure  
Sea Level Pressure 30.11 in    
Wind  
Wind Speed 9 mph ()    
Max Wind Speed 15 mph    
Max Gust Speed -    
Visibility 6.2 miles    
Events Fog , Snow    
Averages and records for this station are not official NWS values.
T = Trace of Precipitation, MM = Missing Value Source: Averaged Metar Reports

Daily Weather History Graph

Daily Weather History Graph

Search for Another Location

Airport:

Trip Planner

Search our weather history database for the weather conditions in past years. The results will help you decide how hot, cold, wet, or windy it might be!

Date:

Astronomy

Jan. 12, 2013 Rise Set
Actual Time 11:39 AM EST 1:27 PM EST
Civil Twilight 9:33 AM EST 3:34 PM EST
Nautical Twilight 8:07 AM EST 4:59 PM EST
Astronomical Twilight 6:56 AM EST 6:11 PM EST
Moon 10:08 AM EST (1/12) 4:54 PM EST (1/12)
Length of Visible Light 6h 01m
Length of Day
1h 47m
New Moon, 1% of the Moon is Illuminated
Jan 12
New Moon
Jan 18
First Quarter
Jan 26
Full
Feb 3
Last Quarter
Feb 10
New

Hourly Weather History & Observations

Time (EST) Temp. Windchill Dew Point Humidity Pressure Visibility Wind Dir Wind Speed Gust Speed Precip Events Conditions
1:00 AM -23.8 °F -43.2 °F -29.2 °F 76% 30.08 in 9.0 mi SSW 8.1 mph - N/A   Partly Cloudy
2:07 AM -31.0 °F -51.9 °F -36.4 °F 75% 30.09 in 9.0 mi SW 8.1 mph - N/A   Partly Cloudy
3:00 AM -29.2 °F -46.2 °F -34.6 °F 75% 30.09 in 9.0 mi SW 5.8 mph - N/A   Partly Cloudy
5:00 AM -25.6 °F -43.8 °F -31.0 °F 76% 30.11 in 9.0 mi SSW 6.9 mph - N/A   Clear
5:39 AM -23.8 °F -39.8 °F -29.2 °F 76% 30.12 in 9.0 mi SSW 5.8 mph - N/A Snow Light Snow
5:49 AM -23.8 °F -41.6 °F -29.2 °F 76% 30.12 in 5.0 mi South 6.9 mph - N/A Snow Light Snow
5:51 AM -23.8 °F -39.8 °F -29.2 °F 76% 30.12 in 4.0 mi South 5.8 mph - N/A Snow Light Snow
5:54 AM -23.8 °F -39.8 °F -29.2 °F 76% 30.12 in 2.2 mi South 5.8 mph - N/A Snow Light Snow
5:55 AM -23.8 °F -37.7 °F -29.2 °F 76% 30.12 in 2.0 mi South 4.6 mph - N/A Snow Light Snow
6:00 AM -23.8 °F -41.6 °F -31.0 °F 69% 30.12 in 1.5 mi South 6.9 mph - N/A Snow Light Snow
6:13 AM -23.8 °F -44.5 °F -29.2 °F 76% 30.12 in 2.2 mi South 9.2 mph - N/A Snow Light Snow
6:20 AM -22.0 °F -44.7 °F -27.4 °F 76% 30.12 in 3.0 mi South 11.5 mph - N/A Snow Light Snow
6:28 AM -20.2 °F -41.3 °F -25.6 °F 76% 30.12 in 6.0 mi South 10.4 mph - N/A Snow Light Snow
6:41 AM -20.2 °F -42.4 °F -25.6 °F 76% 30.12 in 9.0 mi South 11.5 mph - N/A   Clear
8:00 AM -20.2 °F -44.4 °F -23.8 °F 83% 30.12 in 5.0 mi SSE 13.8 mph - N/A   Ice Crystals
8:29 AM -16.6 °F -38.9 °F -22.0 °F 76% 30.12 in 1.5 mi SSE 12.7 mph - N/A   Ice Crystals
9:00 AM -14.8 °F -35.6 °F -18.4 °F 84% 30.12 in 6.0 mi SSE 11.5 mph - N/A   Ice Crystals
9:31 AM -13.0 °F -36.0 °F -16.6 °F 84% 30.12 in 3.0 mi SSE 15.0 mph - N/A   Ice Crystals
10:00 AM -13.0 °F -32.4 °F -16.6 °F 84% 30.12 in 6.0 mi SE 10.4 mph - N/A   Ice Crystals
11:00 AM -11.2 °F -32.9 °F -16.6 °F 77% 30.12 in 7.0 mi SE 13.8 mph - N/A Fog Ice Crystals
1:00 PM -9.4 °F -28.9 °F -13.0 °F 84% 30.12 in 2.0 mi SSE 11.5 mph - N/A   Ice Crystals
2:00 PM -9.4 °F -28.9 °F -13.0 °F 84% 30.12 in 3.0 mi SSE 11.5 mph - N/A   Ice Crystals
3:00 PM -9.4 °F -29.8 °F -13.0 °F 84% 30.12 in 10.0 mi SSE 12.7 mph - N/A Fog Ice Crystals
4:00 PM -7.6 °F -24.6 °F -13.0 °F 77% 30.12 in 5.0 mi SSE 9.2 mph - N/A   Ice Crystals
5:00 PM -7.6 °F -27.5 °F -13.0 °F 77% 30.12 in 6.0 mi SSE 12.7 mph - N/A   Ice Crystals
6:00 PM -7.6 °F -28.3 °F -13.0 °F 77% 30.12 in 3.0 mi SSE 13.8 mph - N/A   Ice Crystals
7:00 PM -7.6 °F -27.5 °F -11.2 °F 84% 30.12 in 3.0 mi SSE 12.7 mph - N/A Snow Ice Crystals
7:37 PM -7.6 °F -27.5 °F -11.2 °F 84% 30.11 in 6.0 mi SSE 12.7 mph - N/A Snow Light Snow
8:00 PM -9.4 °F -29.8 °F -13.0 °F 84% 30.12 in 9.0 mi SSE 12.7 mph - N/A Snow Light Snow
8:04 PM -9.4 °F -29.8 °F -13.0 °F 84% 30.12 in 9.0 mi SSE 12.7 mph - N/A   Scattered Clouds
8:21 PM -9.4 °F -27.9 °F -13.0 °F 84% 30.12 in 9.0 mi SSE 10.4 mph - N/A Snow Light Snow
8:47 PM -9.4 °F -30.6 °F -13.0 °F 84% 30.12 in 9.0 mi SSE 13.8 mph - N/A   Overcast
9:00 PM -9.4 °F -29.8 °F -13.0 °F 84% 30.11 in 9.0 mi SSE 12.7 mph - N/A   Overcast
9:10 PM -9.4 °F -31.4 °F -13.0 °F 84% 30.12 in 9.0 mi SSE 15.0 mph - N/A Snow Light Snow
9:26 PM -7.6 °F -28.3 °F -13.0 °F 77% 30.11 in 5.0 mi SSE 13.8 mph - N/A Snow Light Snow
9:47 PM -7.6 °F -29.1 °F -13.0 °F 77% 30.11 in 6.0 mi SSE 15.0 mph - N/A Snow Light Snow
10:00 PM -9.4 °F -30.6 °F -13.0 °F 84% 30.10 in 9.0 mi SSE 13.8 mph - N/A Snow Light Snow
10:28 PM -9.4 °F -28.9 °F -14.8 °F 77% 30.10 in 9.0 mi SSE 11.5 mph - N/A   Overcast
11:00 PM -9.4 °F -30.6 °F -14.8 °F 77% 30.10 in 9.0 mi SE 13.8 mph - N/A   Overcast
11:54 PM -9.4 °F -27.9 °F -13.0 °F 84% 30.10 in 9.0 mi SE 10.4 mph - N/A Snow Light Snow